Погода в Байково

Россия / Сахалинская область     47°28′40″N   141°57′55″E
темп.,
°C
ветер,
м/с
пор.,
м/с
влажн.,
%
обл.,
%
осадки,
мм/ч
давл.,
гПа
погр.,
м
11 апреля, вс
вс1123:00−1юв34910 0.0 102762
02:00−1юв35930 0.0 102789
05:00−1юв36930 0.0 1027101
08:00+1ююв48925 0.0 1027188
11:00+5ююз611750 0.0 1027430
14:00+6ююз7147728 0.0 1026615
17:00+5ююз81683100 0.0 1024586
20:00+4ю7178862 0.0 1024521
12 апреля, пн
пн1223:00+4ю7169486 0.0 1025575
02:00+4ююз71794100 0.1 1024654
05:00+4ююз71495100 0.1 1023659
08:00+4ю91795100 0.0 1021711
11:00+4ююз91893100 0.1 1020679
14:00+5ююз9189193 0.4 1019659
17:00+5ююз8178783 0.4 1018644
20:00+4ююз91885100 0.0 1018718
13 апреля, вт
вт1323:00+4ююз82083100 0.0 1017758
02:00+5ююз92079100 0.0 1016855
05:00+5ююз102081100 0.0 1013841
08:00+5ююз102094100 0.0 10111037
11:00+6ююз101991100 0.1 1009927
14:00+5ююз91797100 0.9 10061004
17:00+5ююз91798100 4.9 10041109
20:00+5ююз81797100 6.6 10031073
14 апреля, ср
ср1423:00+5ююз61598100 15.6 9991116
02:00−1с71097100 8.9 998458
05:00−1ссз91490100 10.4 1000830
08:00−2ссз81183100 0.2 10031044
11:00−1ссз6974100 0.4 10071251
14:00−1ссз576880 0.1 10081196
17:000сз23614 0.1 1010864
20:00−2ссз117429 0.0 101262
15 апреля, чт
чт1523:00−4в11794 0.0 101541
02:00−4в21784 0.0 101538
05:00−3в21784 0.0 101635
08:00−1в12680 0.0 101778
11:00+3юз12474 0.0 10181059
14:00+3зюз34539 0.0 10181169
17:00+3юз34560 0.0 1018853
20:00+1ю24794 0.0 1019134